Location: Muck Cross
(36.7179°N, 78.3678°W)
Time: 14:50:54
(UTC+00:00)

Vanguard 1 Rocket - All Passes

Search period start: 30 March 2023 00:00
Search period end: 09 April 2023 00:00
Orbit: 652 x 4223 km, 34.3° (Epoch: 29 March)

Date Brightness Start Highest point End Pass type
(mag) Time Alt. Az. Time Alt. Az. Time Alt. Az.
30 Mar - 00:08:09 10° SSW 00:30:35 40° SE 00:49:57 10° E visible
30 Mar - 02:36:00 10° WSW 03:01:55 69° SSE 03:18:38 10° E visible
30 Mar - 05:09:54 10° W 05:32:46 82° S 05:44:33 10° E visible
30 Mar - 07:44:52 10° W 08:00:36 57° SSW 08:08:34 10° SE visible
30 Mar - 10:19:59 10° W 10:24:25 14° SW 10:27:56 10° SSW visible
30 Mar - 22:57:38 10° S 23:16:25 28° SE 23:34:44 10° E daylight
31 Mar - 01:21:47 10° SW 01:47:05 59° SSE 02:06:13 10° E visible
31 Mar - 03:53:29 10° WSW 04:18:48 81° S 04:33:11 10° E visible
31 Mar - 06:28:41 10° W 06:48:25 73° SSW 06:58:12 10° ESE visible
31 Mar - 09:03:12 10° W 09:13:58 30° SW 09:20:23 10° SSE visible
31 Mar - 21:50:17 10° SSE 22:02:50 17° SE 22:15:55 10° E daylight
01 Apr - 00:08:59 10° SSW 00:32:17 47° SE 00:52:54 10° E visible
01 Apr - 02:37:49 10° WSW 03:04:08 75° SSE 03:21:20 10° E visible
01 Apr - 05:12:06 10° W 05:35:17 81° S 05:47:18 10° ESE visible
01 Apr - 07:47:11 10° W 08:02:51 50° SSW 08:11:01 10° SE visible
01 Apr - 22:57:48 10° SSW 23:17:57 35° SE 23:38:13 10° E daylight
02 Apr - 01:23:19 10° SW 01:49:03 66° SSE 02:08:53 10° E visible
02 Apr - 03:55:37 10° W 04:21:13 83° S 04:35:56 10° E visible
02 Apr - 06:30:53 10° W 06:50:48 67° SSW 07:00:50 10° ESE visible
02 Apr - 09:06:05 10° W 09:15:54 24° SW 09:22:10 10° S visible
02 Apr - 21:48:49 10° S 22:04:17 22° SE 22:21:06 10° E daylight
03 Apr - 00:10:11 10° SW 00:34:00 54° SSE 00:55:39 10° ENE visible
03 Apr - 02:39:48 10° WSW 03:06:22 79° SSE 03:24:01 10° E visible
03 Apr - 05:14:18 10° W 05:37:43 79° SSW 05:50:03 10° ESE visible
03 Apr - 07:49:32 10° WNW 08:04:56 42° SW 08:13:18 10° SSE visible
03 Apr - 20:46:40 10° SE 20:51:20 11° ESE 20:56:12 10° ESE daylight
03 Apr - 22:58:31 10° SSW 23:19:26 41° SE 23:41:15 10° E daylight
04 Apr - 01:25:05 10° WSW 01:51:04 72° SSE 02:11:31 10° E visible
04 Apr - 03:57:49 10° W 04:23:37 83° S 04:38:40 10° E visible
04 Apr - 06:33:04 10° W 06:53:04 60° SSW 07:03:22 10° SE visible
04 Apr - 09:09:24 10° W 09:17:41 19° SW 09:23:28 10° SSW visible
04 Apr - 21:48:37 10° S 22:05:39 28° SE 22:25:02 10° E daylight
05 Apr - 00:11:41 10° SW 00:35:45 61° SSE 00:58:15 10° ENE visible
05 Apr - 02:41:56 10° WSW 03:08:39 82° S 03:26:42 10° E visible
05 Apr - 05:16:29 10° W 05:40:05 74° SSW 05:52:41 10° ESE visible
05 Apr - 07:52:01 10° W 08:06:52 35° SW 08:15:22 10° SSE visible
05 Apr - 20:41:51 10° SSE 20:52:42 16° SE 21:05:04 10° E daylight
05 Apr - 22:59:40 10° SSW 23:20:56 48° SE 23:44:00 10° ENE daylight
06 Apr - 01:27:05 10° WSW 01:53:08 77° SSE 02:14:07 10° E visible
06 Apr - 04:00:03 10° W 04:26:00 82° S 04:41:21 10° ESE visible
06 Apr - 06:35:17 10° WNW 06:55:09 53° SW 07:05:44 10° SE visible
06 Apr - 09:13:37 10° W 09:19:20 14° WSW 09:23:52 10° SSW visible
06 Apr - 21:49:08 10° SSW 22:06:59 35° SE 22:28:19 10° E daylight
07 Apr - 00:13:28 10° SW 00:37:34 67° SSE 01:00:48 10° E visible
07 Apr - 02:44:10 10° W 03:10:57 84° S 03:29:22 10° E visible
07 Apr - 05:18:40 10° W 05:42:20 69° SSW 05:55:15 10° ESE visible
07 Apr - 07:54:42 10° W 08:08:37 29° SW 08:17:07 10° S visible
07 Apr - 20:40:44 10° SSE 20:53:59 22° SE 21:10:08 10° E daylight
07 Apr - 23:01:09 10° SW 23:22:30 55° SE 23:46:35 10° ENE daylight
08 Apr - 01:29:14 10° WSW 01:55:16 80° SSE 02:16:42 10° E visible
08 Apr - 04:02:17 10° W 04:28:19 79° SSW 04:44:00 10° ESE visible
08 Apr - 06:37:33 10° WNW 06:57:04 46° SW 07:07:56 10° SSE visible
08 Apr - 21:50:11 10° SSW 22:08:21 41° SE 22:31:11 10° ENE daylight
